| time (UTC) | temp F | wind direction | speed MPH | gust MPH | rain 1hr in | rain 24hr in | rain mn in | humidity % | barometer mb |
| 20260508191605 | 47 | 12 | 0.0 | 1.0 | 0.00 | 0.54 | 0.00 | 82 | 1001.3 |
| 20260508190059 | 47 | 213 | 0.0 | 1.0 | 0.00 | 0.54 | 0.00 | 81 | 1001.3 |
| 20260508184608 | 49 | 324 | 0.0 | 1.0 | 0.00 | 0.68 | 0.00 | 79 | 1001.1 |
| 20260508183126 | 49 | 195 | 0.0 | 1.0 | 0.00 | 0.68 | 0.00 | 80 | 1001.2 |
| 20260508181608 | 48 | 275 | 0.0 | 1.0 | 0.00 | 0.68 | 0.00 | 80 | 1001.3 |
| 20260508180100 | 48 | 19 | 0.0 | 0.0 | 0.00 | 0.68 | 0.00 | 83 | 1001.4 |
| 20260508174605 | 48 | 12 | 0.0 | 1.0 | 0.00 | 0.68 | 0.00 | 83 | 1001.3 |
| 20260508173059 | 49 | 20 | 0.0 | 0.0 | 0.00 | 0.68 | 0.00 | 85 | 1001.4 |
| 20260508171600 | 48 | 346 | 0.0 | 0.0 | 0.00 | 0.68 | 0.00 | 85 | 1001.7 |
| 20260508164602 | 47 | 198 | 0.0 | 0.0 | 0.00 | 0.68 | 0.00 | 84 | 1001.7 |
| 20260508163106 | 47 | 199 | 0.0 | 0.0 | 0.00 | 0.68 | 0.00 | 84 | 1001.7 |
| 20260508163001 | 47 | 199 | 0.0 | 0.0 | 0.00 | 0.68 | 0.00 | 84 | 1001.6 |
| 20260508161601 | 47 | 191 | 0.0 | 0.0 | 0.00 | 0.68 | 0.00 | 85 | 1001.5 |
| 20260508160100 | 47 | 191 | 0.0 | 0.0 | 0.00 | 0.68 | 0.00 | 84 | 1001.7 |
| 20260508160001 | 47 | 191 | 0.0 | 0.0 | 0.00 | 0.68 | 0.00 | 84 | 1001.7 |
| 20260508154623 | 44 | 191 | 0.0 | 0.0 | 0.00 | 0.68 | 0.00 | 89 | 1001.6 |
| 20260508153100 | 46 | 191 | 0.0 | 0.0 | 0.00 | 0.68 | 0.00 | 85 | 1001.7 |
| 20260508151609 | 46 | 190 | 0.0 | 0.0 | 0.00 | 0.68 | 0.00 | 86 | 1001.7 |
| 20260508150059 | 46 | 293 | 0.0 | 1.0 | 0.00 | 0.68 | 0.00 | 85 | 1001.8 |
| 20260508144610 | 47 | 204 | 0.0 | 0.0 | 0.00 | 0.68 | 0.00 | 85 | 1001.9 |
| 20260508143106 | 47 | 15 | 0.0 | 0.0 | 0.00 | 0.68 | 0.00 | 86 | 1001.7 |
| 20260508141606 | 47 | 261 | 0.0 | 2.0 | 0.00 | 0.68 | 0.00 | 83 | 1002.2 |
| 20260508140101 | 47 | 284 | 0.0 | 1.0 | 0.00 | 0.68 | 0.00 | 85 | 1002.4 |
| 20260508140001 | 47 | 350 | 0.0 | 1.0 | 0.00 | 0.68 | 0.00 | 84 | 1002.3 |
| 20260508134624 | 48 | 270 | 0.0 | 0.0 | 0.00 | 0.68 | 0.00 | 86 | 1002.5 |
| 20260508133104 | 48 | 188 | 0.0 | 0.0 | 0.00 | 0.68 | 0.00 | 87 | 1002.6 |
| 20260508131612 | 47 | 202 | 0.0 | 0.0 | 0.00 | 0.68 | 0.00 | 87 | 1002.4 |
| 20260508130100 | 46 | 188 | 0.0 | 0.0 | 0.00 | 0.68 | 0.00 | 89 | 1002.1 |
| 20260508124605 | 44 | 196 | 0.0 | 0.0 | 0.00 | 0.68 | 0.00 | 89 | 1002.0 |
| 20260508123100 | 46 | 207 | 0.0 | 0.0 | 0.00 | 0.68 | 0.00 | 88 | 1002.2 |
| 20260508121559 | 46 | 292 | 0.0 | 0.0 | 0.00 | 0.68 | 0.00 | 88 | 1002.1 |
| 20260508120100 | 46 | 203 | 0.0 | 0.0 | 0.00 | 0.68 | 0.00 | 91 | 1002.3 |
| 20260508114603 | 46 | 204 | 0.0 | 0.0 | 0.00 | 0.68 | 0.00 | 93 | 1002.5 |
| 20260508113101 | 44 | 236 | 0.0 | 0.0 | 0.00 | 0.68 | 0.00 | 96 | 1002.1 |
| 20260508111600 | 43 | 223 | 0.0 | 0.0 | 0.00 | 0.68 | 0.00 | 98 | 1002.3 |
| 20260508110114 | 41 | 223 | 0.0 | 0.0 | 0.00 | 0.68 | 0.00 | 98 | 1002.2 |
| 20260508104600 | 40 | 223 | 0.0 | 0.0 | 0.00 | 0.68 | 0.00 | 98 | 1002.6 |
| 20260508103101 | 40 | 223 | 0.0 | 0.0 | 0.00 | 0.68 | 0.00 | 98 | 1002.7 |
| 20260508101600 | 40 | 223 | 0.0 | 0.0 | 0.00 | 0.68 | 0.00 | 100 | 1002.6 |
| 20260508100200 | 39 | 223 | 0.0 | 0.0 | 0.00 | 0.68 | 0.00 | 98 | 1002.6 |
| 20260508094608 | 39 | 223 | 0.0 | 0.0 | 0.00 | 0.69 | 0.00 | 98 | 1002.2 |
| 20260508093100 | 39 | 223 | 0.0 | 0.0 | 0.00 | 0.69 | 0.00 | 98 | 1002.2 |
| 20260508091606 | 39 | 223 | 0.0 | 0.0 | 0.00 | 0.69 | 0.00 | 98 | 1002.0 |
| 20260508090115 | 39 | 223 | 0.0 | 0.0 | 0.00 | 0.69 | 0.00 | 98 | 1002.1 |
| 20260508084600 | 39 | 223 | 0.0 | 0.0 | 0.00 | 0.73 | 0.00 | 97 | 1002.2 |
| 20260508083100 | 39 | 223 | 0.0 | 0.0 | 0.00 | 0.73 | 0.00 | 97 | 1001.6 |
| 20260508081608 | 39 | 223 | 0.0 | 0.0 | 0.00 | 0.73 | 0.00 | 98 | 1001.6 |
| 20260508080100 | 40 | 223 | 0.0 | 0.0 | 0.00 | 0.73 | 0.00 | 98 | 1001.5 |
| 20260508074600 | 40 | 223 | 0.0 | 0.0 | 0.00 | 0.73 | 0.00 | 98 | 1001.6 |
| 20260508073111 | 40 | 223 | 0.0 | 0.0 | 0.00 | 0.73 | 0.00 | 97 | 1001.7 |
| 20260508071606 | 40 | 223 | 0.0 | 0.0 | 0.00 | 0.73 | 0.00 | 97 | 1001.8 |
| 20260508064619 | 40 | 223 | 0.0 | 0.0 | 0.00 | 0.73 | 0.00 | 97 | 1001.6 |
| 20260508063110 | 41 | 223 | 0.0 | 0.0 | 0.00 | 0.73 | 0.00 | 97 | 1001.6 |
| 20260508061609 | 41 | 223 | 0.0 | 0.0 | 0.00 | 0.73 | 0.00 | 97 | 1001.7 |
| 20260508060111 | 43 | 222 | 0.0 | 0.0 | 0.00 | 0.73 | 0.00 | 97 | 1001.5 |
| 20260508054600 | 45 | 349 | 0.0 | 0.0 | 0.00 | 0.73 | 0.00 | 97 | 1001.6 |
| 20260508053101 | 46 | 349 | 0.0 | 0.0 | 0.00 | 0.73 | 0.00 | 97 | 1001.6 |
| 20260508051614 | 46 | 349 | 0.0 | 0.0 | 0.00 | 0.73 | 0.00 | 98 | 1001.1 |
| 20260508044600 | 47 | 349 | 0.0 | 0.0 | 0.00 | 0.73 | 0.00 | 98 | 1001.3 |
| 20260508043100 | 48 | 349 | 0.0 | 0.0 | 0.00 | 0.73 | 0.00 | 98 | 1001.4 |
| 20260508041600 | 49 | 350 | 0.0 | 0.0 | 0.00 | 0.73 | 0.00 | 98 | 1001.4 |
| 20260508040105 | 49 | 349 | 0.0 | 0.0 | 0.00 | 0.73 | 0.00 | 98 | 1001.5 |
| 20260508034601 | 48 | 349 | 0.0 | 0.0 | 0.00 | 0.73 | 0.00 | 98 | 1001.6 |
| 20260508033102 | 48 | 349 | 0.0 | 0.0 | 0.00 | 0.73 | 0.00 | 98 | 1001.7 |
| 20260508031601 | 48 | 349 | 0.0 | 0.0 | 0.00 | 0.73 | 0.00 | 98 | 1001.8 |
| 20260508030104 | 48 | 349 | 0.0 | 0.0 | 0.00 | 0.73 | 0.00 | 98 | 1001.8 |
| 20260508024619 | 49 | 349 | 0.0 | 0.0 | 0.00 | 0.73 | 0.73 | 98 | 1001.7 |
| 20260508023058 | 49 | 349 | 0.0 | 0.0 | 0.00 | 0.73 | 0.73 | 98 | 1001.4 |
| 20260508021606 | 49 | 350 | 0.0 | 0.0 | 0.00 | 0.73 | 0.73 | 98 | 1001.5 |
| 20260508020111 | 49 | 349 | 0.0 | 0.0 | 0.00 | 0.73 | 0.73 | 98 | 1001.6 |
| 20260508014558 | 49 | 349 | 0.0 | 0.0 | 0.00 | 0.73 | 0.73 | 98 | 1001.7 |
| 20260508013058 | 47 | 350 | 0.0 | 0.0 | 0.00 | 0.73 | 0.73 | 98 | 1001.5 |
| 20260508011606 | 47 | 350 | 0.0 | 0.0 | 0.00 | 0.73 | 0.73 | 97 | 1001.3 |
| 20260508010058 | 47 | 346 | 0.0 | 0.0 | 0.00 | 0.73 | 0.73 | 97 | 1001.8 |
| 20260508004601 | 47 | 196 | 0.0 | 0.0 | 0.00 | 0.73 | 0.73 | 97 | 1001.8 |
| 20260508003058 | 47 | 196 | 0.0 | 0.0 | 0.00 | 0.73 | 0.73 | 97 | 1001.5 |
| 20260508001558 | 46 | 198 | 0.0 | 0.0 | 0.00 | 0.73 | 0.73 | 97 | 1001.5 |
| 20260508000058 | 47 | 355 | 0.0 | 0.0 | 0.00 | 0.73 | 0.73 | 97 | 1001.9 |
| 20260507234559 | 47 | 340 | 0.0 | 0.0 | 0.00 | 0.73 | 0.73 | 97 | 1001.8 |
| 20260507233101 | 47 | 360 | 0.0 | 1.0 | 0.00 | 0.73 | 0.73 | 96 | 1001.9 |
| 20260507231600 | 48 | 344 | 0.0 | 0.0 | 0.00 | 0.73 | 0.73 | 96 | 1002.5 |
| 20260507230110 | 48 | 216 | 0.0 | 0.0 | 0.00 | 0.73 | 0.73 | 96 | 1002.1 |
| 20260507224559 | 49 | 211 | 0.0 | 0.0 | 0.00 | 0.73 | 0.73 | 96 | 1002.5 |
| 20260507223058 | 50 | 9 | 0.0 | 1.0 | 0.00 | 0.73 | 0.73 | 96 | 1002.2 |
| 20260507221600 | 50 | 10 | 0.0 | 0.0 | 0.00 | 0.73 | 0.73 | 96 | 1002.5 |
| 20260507220100 | 50 | 10 | 0.0 | 1.0 | 0.00 | 0.73 | 0.73 | 97 | 1002.6 |
| 20260507214559 | 49 | 15 | 0.0 | 1.0 | 0.03 | 0.73 | 0.73 | 97 | 1002.4 |
| 20260507213059 | 47 | 355 | 0.0 | 1.0 | 0.07 | 0.73 | 0.73 | 96 | 1002.0 |
| 20260507211604 | 47 | 180 | 0.0 | 2.0 | 0.13 | 0.73 | 0.73 | 96 | 1001.8 |
| 20260507210111 | 47 | 360 | 0.0 | 2.0 | 0.18 | 0.72 | 0.72 | 96 | 1002.4 |
| 20260507204601 | 48 | 11 | 0.0 | 2.0 | 0.24 | 0.70 | 0.70 | 96 | 1003.3 |
| 20260507203129 | 48 | 360 | 0.0 | 2.0 | 0.32 | 0.65 | 0.65 | 95 | 1003.6 |
| 20260507201558 | 50 | 284 | 0.0 | 2.0 | 0.35 | 0.59 | 0.59 | 96 | 1003.9 |
| 20260507194618 | 51 | 5 | 0.0 | 1.0 | 0.31 | 0.44 | 0.44 | 96 | 1004.6 |
| 20260507193103 | 49 | 355 | 0.0 | 1.0 | 0.25 | 0.32 | 0.32 | 95 | 1004.4 |